Location: Eyeline Observatory
(43.2182°N, 78.8632°W)
Time: 00:20:21
(UTC-04:00)

Vanguard 1 Rocket - Visible Passes

Search period start: 18 August 2018 00:00
Search period end: 28 August 2018 00:00
Orbit: 650 x 4226 km, 34.3° (Epoch: 16 August)

Date Brightness Start Highest point End Pass type
(mag) Time Alt. Az. Time Alt. Az. Time Alt. Az.
18 Aug 10.1 01:16:24 42° SE 01:16:28 42° SE 01:37:15 10° E visible
18 Aug 10.3 03:33:39 31° WSW 03:45:15 65° S 04:11:05 10° E visible
19 Aug 10.6 00:08:52 26° ESE 00:08:52 26° ESE 00:20:30 10° E visible
19 Aug 9.8 02:26:07 48° SSW 02:31:24 58° SSE 02:55:43 10° E visible
19 Aug 10.5 04:43:22 13° W 05:02:16 67° S 05:28:04 10° ESE visible
19 Aug 11.1 23:01:22 11° E 23:01:22 11° E 23:02:08 10° E visible
20 Aug 9.9 01:18:37 47° SSE 01:18:37 47° SSE 01:39:46 10° E visible
20 Aug 10.3 03:35:52 29° WSW 03:47:40 66° S 04:13:30 10° E visible
20 Aug 10.8 05:57:50 10° W 06:19:24 59° SSW 06:43:48 10° SE visible
21 Aug 10.4 00:11:08 30° ESE 00:11:08 30° ESE 00:23:22 10° E visible
21 Aug 9.8 02:28:24 48° SSW 02:33:47 61° SSE 02:58:06 10° E visible
21 Aug 10.5 04:45:39 11° W 05:04:38 65° S 05:30:21 10° ESE visible
21 Aug 10.9 23:03:42 13° E 23:03:42 13° E 23:06:10 10° E visible
22 Aug 9.7 01:20:57 52° SSE 01:20:57 52° SSE 01:42:12 10° E visible
22 Aug 10.2 03:38:13 28° WSW 03:50:07 66° S 04:15:50 10° ESE visible
23 Aug 10.2 00:13:34 33° ESE 00:13:34 33° ESE 00:26:02 10° E visible
23 Aug 9.7 02:30:50 49° SW 02:36:15 63° S 03:00:28 10° E visible
23 Aug 10.5 04:48:12 10° W 05:06:58 61° SSW 05:32:29 10° ESE visible
23 Aug 10.8 23:06:14 15° E 23:06:14 15° E 23:09:31 10° E visible
24 Aug 9.6 01:23:30 55° SSE 01:23:30 55° SSE 01:44:36 10° E visible
24 Aug 10.2 03:40:46 26° WSW 03:52:36 65° S 04:18:04 10° ESE visible
24 Aug 10.8 06:03:41 10° W 06:23:38 49° SSW 06:47:25 10° SE visible
25 Aug 10.1 00:16:15 35° ESE 00:16:15 35° ESE 00:28:35 10° E visible
25 Aug 9.7 02:33:32 49° SW 02:38:47 64° S 03:02:46 10° ESE visible
25 Aug 10.5 04:51:10 10° W 05:09:17 57° SSW 05:34:24 10° SE visible
25 Aug 10.8 23:09:04 16° E 23:09:04 16° E 23:12:32 10° E visible
26 Aug 9.5 01:26:22 58° SSE 01:26:22 58° SSE 01:46:57 10° E visible
26 Aug 10.1 03:43:40 26° WSW 03:55:06 62° S 04:20:10 10° ESE visible
26 Aug10.222:02:01E22:02:01E21:42:01Svisible
27 Aug 10.1 00:19:19 36° ESE 00:19:19 36° ESE 00:31:04 10° E visible
27 Aug 9.6 02:36:37 50° SW 02:41:24 63° S 03:04:59 10° ESE visible
27 Aug 10.5 04:54:12 10° W 05:11:37 52° SSW 05:36:05 10° SE visible
27 Aug 10.4 23:12:23 15° E 23:12:23 15° E 23:15:20 10° E visible
